7 * 24
多渠道服务支持
STARLINK-37129(NORAD编号68274)是SpaceX星链星座中的一颗低轨通信卫星,属于SpaceX打造的卫星互联网项目,旨在提供全球覆盖的高速互联网服务。 它运行在约550公里的近地轨道,作为第二代星链卫星,配备了相控阵天线与卫星间激光链路,单链路最高速率可达200Gbps,可动态组网调度,大幅减少对地面站的依赖。依托低轨部署,该卫星支持将端到端时延压缩至25毫秒左右,可满足实时通信需求,同时依托氩气推进器完成轨道机动与离轨处置,配合星座全球覆盖的组网目标。
美国
(US)
| 数据来源 | 国际轨道数据 |
| 星历时间: | 2026-06-10T06:35:02+0800 13小时前 查看轨道信息 |
| 半长轴: | 6840.841km |
| 偏心率: | 0.0001601 |
| 轨道倾角: | 53.158° |
| 近地点辐角 | 80.632° |
| 升交点赤经 | 249.447° |
| 平近点角 | 279.487° |
| 近地点: | 461.608km |
| 远地点: | 463.8km |
| 周期: | 93.848分钟 |
| 每日圈数: | 15.344 |